Location: M?digepalle
(16.1753°N, 80.3496°E)
Time: 07:35:26
(UTC+00:00)

BREEZE-M DEB (TANK) - Pass Details

Date: 29 October 2020
Orbit: 307 x 15417 km, 49.5° (Epoch: 27 November)

Event Time Altitude Azimuth Distance (km) Brightness Sun altitude
Exits shadow 23:07:53 28° 198° (SSW) 966 3.4 -21.4°
Maximum altitude 23:09:27 64° 124° (SE) 723 3.0 -21.0°
Drops below altitude 10° 23:17:24 10° 44° (NE) 4,128 7.2 -19.1°
Sets 23:23:50 0° 43° (NE) 6,890 8.4 -17.6°
